Wind_Speed
16 16 17 17 18 16 15 14 13 13 13 12 11 10 10 9 8 8 8 7 7 6 6 6 5 5 5 5 4 4 4 4 4 5 5 5 6 7 7 8 9 10 11 12
15 16 16 16 17 15 15 14 13 12 12 13 12 11 9 9 9 9 8 8 7 7 6 5 5 5 5 4 4 4 4 4 4 5 5 5 6 7 8 9 10 11 12 12
14 15 15 15 15 14 13 13 12 12 11 11 11 10 9 9 9 9 9 9 8 7 6 5 5 5 5 5 4 4 4 4 4 4 4 5 6 7 7 9 10 11 12 12
13 14 14 14 14 13 12 13 13 13 12 11 11 10 10 10 10 9 8 8 7 7 6 6 5 5 5 5 5 4 4 4 4 4 4 4 5 6 7 8 10 10 11 12
12 13 13 13 13 13 12 13 13 13 12 11 11 11 10 10 9 8 8 7 7 6 5 5 5 5 5 5 5 4 4 3 4 4 4 4 5 6 7 8 9 10 11 13
12 11 12 13 13 12 12 12 13 13 12 11 11 11 11 10 9 8 8 8 7 6 6 5 5 5 5 5 5 4 4 4 4 4 4 4 5 6 7 8 9 11 11 12
10 11 12 12 13 13 13 12 12 12 12 11 10 11 10 9 9 8 7 7 7 6 6 6 5 5 5 5 5 5 4 4 3 3 4 4 5 6 8 9 10 11 12 13
9 10 11 11 12 12 12 12 12 11 9 9 10 9 8 8 8 7 7 7 6 6 6 6 6 6 5 5 5 5 4 4 4 4 4 5 5 6 8 9 10 11 12 13
9 10 10 10 10 11 11 12 12 12 10 10 9 8 8 8 7 7 7 7 6 6 6 6 6 5 5 5 5 5 5 4 4 4 5 5 6 7 8 9 10 12 13 14
8 9 10 10 10 10 11 11 11 11 10 9 8 7 7 8 8 8 7 7 6 6 6 6 5 5 5 5 5 5 5 5 5 5 5 6 7 8 9 10 12 13 14 15
8 9 9 10 10 10 10 10 11 10 10 9 8 7 8 8 9 8 7 7 7 7 6 6 6 6 6 5 5 5 5 5 5 6 7 8 9 10 11 13 13 14 15 16
7 8 9 9 9 9 9 10 11 11 10 9 8 7 8 8 8 8 8 7 7 8 7 7 7 6 7 6 6 6 6 6 6 7 8 9 10 12 13 14 15 16 17 18
8 8 8 8 8 9 10 10 10 11 10 10 9 7 9 9 9 9 9 9 9 8 8 8 7 7 7 7 7 7 7 7 7 9 10 11 12 13 14 15 17 18 19 20
9 9 8 8 7 8 9 9 10 10 9 9 8 9 9 10 10 10 10 10 9 9 9 8 8 8 8 8 7 8 8 8 9 10 11 12 14 15 16 17 18 19 20 21
10 10 10 10 9 9 9 10 11 11 10 10 9 10 10 11 11 11 11 10 10 9 9 9 8 9 9 9 9 9 10 11 11 12 13 14 15 17 17 19 20 21 22 24
12 11 11 11 12 11 11 10 11 11 11 11 11 10 11 12 12 11 11 11 10 10 10 9 10 10 10 10 10 10 11 13 13 14 15 16 17 18 20 21 23 23 24 25
13 13 12 12 13 13 11 10 11 11 11 12 12 11 11 12 12 12 12 11 10 10 10 10 11 11 11 11 11 12 13 14 15 15 17 18 19 20 22 23 24 26 26 27
13 14 14 14 15 15 11 12 13 13 13 13 12 12 12 13 13 12 12 12 11 11 11 11 12 12 13 13 14 14 15 16 17 18 19 20 21 23 24 26 27 28 28 29
16 16 16 15 15 13 12 14 15 15 13 14 14 13 14 13 12 12 12 12 12 12 13 13 13 14 15 15 16 17 17 18 19 20 21 22 24 25 27 28 29 30 31 32
18 18 18 17 16 14 13 15 16 16 14 15 15 15 14 14 13 13 14 14 14 14 15 15 16 16 17 18 19 20 20 21 22 22 23 25 27 28 29 30 31 32 33 34
19 19 19 18 17 15 14 16 16 16 14 15 15 15 15 15 15 15 15 16 16 16 16 17 18 19 20 21 21 22 23 23 24 25 26 28 29 30 32 33 33 35 35 36
20 20 19 19 19 16 17 17 17 16 17 17 17 17 17 17 17 17 17 18 18 18 19 19 20 21 22 23 24 25 25 26 26 28 29 31 32 33 34 35 36 37 38 38
22 22 21 20 20 20 19 19 19 19 19 19 19 19 19 20 20 20 20 20 20 21 21 22 22 23 24 25 26 27 28 29 29 31 32 34 34 35 36 37 38 39 40 41
24 23 23 22 22 22 22 22 22 23 22 22 22 22 22 22 22 22 22 22 23 23 24 24 25 25 26 27 28 29 30 31 32 34 35 35 36 37 38 39 40 41 42 43
24 24 25 24 23 24 24 25 25 25 25 25 25 25 25 25 25 25 25 26 26 27 27 27 27 28 29 29 31 32 33 34 35 35 36 37 38 39 40 40 41 43 44 44
25 26 26 26 25 26 26 26 27 27 27 27 28 28 28 28 28 28 28 28 29 29 29 30 30 31 31 32 32 34 35 36 37 37 38 39 39 40 41 42 43 45 45 46
Wind_Direction
177 180 183 188 192 191 189 190 193 194 194 198 193 191 196 203 205 207 218 224 228 229 236 238 244 253 264 272 277 287 302 310 312 315 321 326 331 337 341 344 344 347 351 353
175 180 183 186 188 188 188 190 192 191 194 196 192 195 201 207 211 217 222 224 225 228 236 243 250 255 262 269 276 286 297 303 302 305 316 326 333 341 345 347 348 349 351 353
177 180 181 182 183 185 185 190 194 193 195 196 194 198 204 212 216 220 222 223 223 225 232 245 252 253 258 266 274 283 292 299 299 300 310 324 331 336 340 345 349 352 353 355
175 178 182 184 184 187 188 191 191 189 196 199 201 204 206 208 210 214 218 219 218 222 231 240 249 256 264 269 275 281 290 295 295 298 305 319 329 334 340 346 351 352 354 355
172 174 180 183 187 191 192 191 190 194 202 207 207 209 203 206 207 212 217 218 218 222 228 235 246 256 263 268 271 276 282 288 293 298 307 317 326 333 340 347 350 349 349 352
174 177 182 183 188 194 196 193 195 200 206 209 208 208 202 208 213 218 222 219 220 221 229 238 247 256 258 263 265 270 278 285 290 297 310 317 325 334 339 344 347 349 346 348
181 182 189 192 194 196 195 199 201 202 206 207 207 202 201 211 217 218 221 224 224 226 237 247 251 255 254 255 261 267 276 287 293 299 307 312 322 333 338 340 342 344 342 341
187 187 191 197 201 197 198 202 210 213 209 206 207 206 211 215 218 220 223 228 231 234 243 252 253 254 256 256 259 265 275 285 294 298 306 314 321 329 333 335 337 339 339 339
184 185 188 193 194 199 202 208 213 217 221 215 212 212 217 219 225 229 229 230 235 243 249 251 251 253 254 254 258 263 268 276 284 293 299 307 318 323 326 329 332 334 335 335
179 183 187 191 195 204 207 206 210 216 223 221 218 219 224 232 233 235 237 238 242 250 253 250 249 250 248 250 257 264 270 271 280 291 299 309 313 315 320 325 326 326 328 330
181 186 192 199 203 206 209 211 213 215 220 226 225 220 229 236 237 240 244 245 251 255 258 257 254 249 248 251 259 267 267 270 282 294 301 304 309 312 314 318 320 321 323 324
190 194 200 205 209 214 216 219 220 221 225 231 232 220 234 242 246 249 251 251 254 258 261 260 256 252 250 253 263 264 268 276 283 292 298 302 306 310 312 314 317 319 319 320
204 207 209 214 219 224 227 228 228 229 231 236 240 232 236 243 249 256 258 256 258 262 261 258 258 256 254 256 262 265 270 277 284 292 297 301 305 307 310 312 314 316 317 317
213 215 221 226 226 231 229 231 235 237 240 243 240 237 235 242 247 253 257 259 261 262 262 258 258 254 254 257 264 269 272 281 287 290 294 299 303 305 308 310 313 314 314 314
220 223 227 229 231 236 236 241 243 242 243 247 243 238 236 242 246 252 255 258 260 262 260 258 259 258 258 264 268 269 273 281 288 293 297 299 302 304 307 311 311 310 311 312
228 229 233 235 239 243 244 248 249 245 246 250 248 242 243 247 251 254 257 259 261 261 260 261 262 264 263 267 271 274 278 284 289 292 296 299 302 304 306 307 309 310 310 311
234 237 239 239 243 248 250 250 250 250 249 250 250 250 250 253 254 254 256 260 260 260 261 264 265 266 266 269 275 279 282 288 291 294 298 300 301 303 305 306 307 309 309 309
239 244 247 249 250 251 251 249 253 253 251 251 252 251 252 254 254 254 256 259 260 261 263 266 267 268 270 273 277 280 283 287 290 294 297 299 300 302 304 305 306 307 307 307
244 247 251 254 255 254 252 254 255 255 253 255 254 253 253 254 255 257 258 260 262 263 265 268 270 271 273 274 277 280 282 285 289 292 295 298 300 302 303 304 305 305 306 307
248 251 254 256 258 256 253 255 255 256 254 253 255 255 254 254 255 257 260 263 265 267 269 271 273 275 277 277 278 280 283 285 287 290 293 296 299 300 301 302 303 304 305 306
250 252 255 257 258 258 257 255 255 257 254 251 252 254 255 255 257 260 263 264 266 270 272 274 276 278 279 279 280 282 283 285 287 289 293 295 298 299 300 301 301 303 305 306
251 253 255 257 257 256 255 256 255 254 252 254 254 255 255 257 260 262 264 266 269 271 274 277 279 279 280 281 281 282 284 286 288 290 292 294 296 298 299 300 301 303 304 305
253 255 256 257 259 257 256 255 254 254 255 256 257 258 259 261 261 262 264 267 270 273 276 278 280 281 281 282 282 282 284 287 288 289 291 293 295 297 298 299 301 303 304 305
253 255 257 257 257 257 256 256 255 257 257 257 258 260 263 263 264 265 266 269 272 274 276 279 281 284 284 284 284 284 286 287 288 290 291 292 294 295 297 299 301 302 304 304
254 256 257 258 256 255 255 256 257 258 259 260 260 262 264 265 265 266 268 270 273 276 278 280 282 283 285 287 286 285 286 288 289 291 291 292 293 295 297 298 300 302 304 305
253 255 257 257 257 257 257 257 258 259 260 261 262 264 266 267 267 268 270 272 274 276 278 280 282 283 284 286 287 287 286 287 289 290 291 293 294 295 296 298 300 302 303 304
Height
5819 5823 5826 5830 5833 5837 5840 5844 5846 5849 5851 5854 5856 5858 5860 5862 5863 5864 5865 5866 5867 5868 5869 5869 5869 5870 5870 5870 5870 5870 5869 5869 5869 5868 5868 5867 5867 5866 5865 5863 5861 5860 5858 5857
5821 5824 5827 5830 5833 5837 5840 5844 5846 5849 5851 5853 5855 5858 5860 5861 5862 5864 5864 5865 5866 5867 5867 5868 5868 5868 5869 5869 5869 5868 5868 5868 5867 5867 5867 5866 5866 5865 5864 5862 5861 5859 5858 5856
5822 5825 5828 5831 5834 5837 5840 5844 5846 5849 5851 5853 5855 5858 5859 5860 5861 5862 5863 5864 5865 5866 5866 5867 5867 5867 5867 5867 5867 5867 5866 5866 5866 5865 5865 5865 5865 5864 5863 5862 5860 5859 5857 5855
5823 5826 5829 5832 5835 5837 5841 5843 5846 5848 5851 5853 5856 5857 5859 5859 5860 5861 5862 5863 5864 5864 5865 5865 5866 5866 5866 5865 5865 5865 5865 5864 5864 5864 5864 5864 5864 5863 5862 5861 5859 5858 5857 5855
5824 5827 5830 5833 5836 5838 5841 5843 5846 5848 5850 5853 5855 5856 5858 5858 5859 5860 5861 5862 5862 5863 5863 5864 5864 5864 5864 5864 5863 5863 5863 5863 5862 5862 5862 5863 5863 5862 5861 5860 5859 5858 5856 5855
5826 5829 5831 5834 5836 5839 5841 5844 5846 5848 5850 5852 5854 5855 5857 5857 5858 5859 5860 5861 5861 5861 5862 5862 5862 5862 5862 5862 5862 5861 5861 5861 5861 5861 5861 5861 5862 5861 5860 5859 5858 5857 5856 5854
5828 5830 5832 5835 5837 5839 5841 5844 5846 5847 5849 5851 5852 5854 5856 5856 5857 5858 5859 5859 5859 5860 5860 5860 5860 5860 5860 5860 5860 5860 5860 5860 5860 5860 5860 5860 5860 5860 5859 5858 5858 5856 5855 5853
5828 5831 5833 5835 5837 5839 5841 5844 5847 5848 5849 5851 5852 5853 5855 5855 5856 5857 5858 5858 5858 5859 5859 5859 5858 5858 5858 5858 5858 5859 5859 5859 5858 5858 5858 5859 5859 5859 5858 5857 5856 5855 5854 5852
5829 5832 5833 5835 5837 5839 5841 5843 5845 5848 5849 5850 5851 5853 5854 5855 5856 5856 5857 5857 5857 5857 5857 5857 5857 5856 5856 5856 5856 5857 5857 5857 5857 5857 5857 5857 5857 5857 5857 5856 5855 5854 5852 5851
5830 5832 5834 5835 5837 5839 5841 5842 5844 5846 5848 5849 5851 5852 5854 5854 5855 5855 5856 5856 5856 5856 5855 5855 5855 5854 5854 5855 5855 5855 5855 5855 5856 5856 5856 5856 5856 5856 5855 5854 5853 5852 5851 5849
5831 5833 5835 5836 5838 5839 5841 5843 5844 5845 5847 5849 5850 5854 5853 5853 5854 5854 5854 5854 5854 5854 5853 5853 5852 5852 5852 5853 5853 5853 5853 5854 5854 5854 5854 5854 5854 5854 5853 5852 5851 5850 5848 5846
5832 5834 5835 5837 5838 5839 5840 5842 5843 5845 5846 5847 5849 5854 5852 5852 5852 5852 5853 5853 5852 5852 5851 5851 5850 5850 5850 5851 5851 5851 5852 5852 5852 5852 5853 5853 5852 5851 5850 5849 5848 5847 5845 5844
5832 5834 5835 5837 5840 5840 5840 5841 5842 5843 5845 5846 5848 5852 5850 5850 5850 5851 5851 5851 5850 5850 5849 5849 5848 5848 5848 5848 5849 5849 5850 5850 5850 5850 5850 5850 5849 5848 5847 5846 5845 5844 5842 5840
5832 5833 5836 5837 5837 5838 5839 5840 5841 5842 5843 5844 5846 5848 5848 5848 5849 5849 5849 5848 5848 5847 5847 5846 5846 5846 5846 5846 5847 5847 5847 5847 5847 5847 5847 5847 5846 5845 5844 5843 5841 5840 5838 5836
5831 5832 5833 5834 5835 5836 5837 5838 5839 5840 5841 5842 5844 5844 5846 5846 5846 5846 5846 5846 5845 5845 5844 5844 5844 5844 5844 5844 5845 5845 5845 5845 5844 5844 5844 5843 5842 5841 5840 5838 5837 5835 5833 5830
5829 5830 5831 5833 5833 5834 5835 5836 5837 5838 5839 5840 5840 5842 5842 5842 5843 5843 5843 5843 5843 5842 5842 5842 5842 5842 5842 5842 5842 5842 5842 5841 5841 5841 5840 5839 5838 5837 5836 5834 5832 5830 5827 5825
5827 5828 5829 5830 5831 5831 5833 5834 5834 5835 5836 5837 5838 5840 5839 5839 5840 5840 5840 5840 5840 5840 5840 5839 5839 5839 5839 5839 5839 5839 5839 5838 5837 5837 5836 5835 5834 5832 5830 5828 5826 5824 5821 5819
5824 5825 5826 5827 5829 5829 5833 5831 5832 5832 5833 5834 5834 5835 5836 5836 5837 5837 5837 5837 5837 5837 5837 5837 5836 5836 5836 5836 5836 5835 5835 5834 5833 5832 5831 5830 5829 5827 5825 5823 5820 5818 5815 5812
5821 5822 5823 5824 5824 5826 5828 5828 5828 5829 5830 5831 5831 5831 5832 5832 5833 5834 5834 5834 5834 5834 5833 5833 5833 5832 5832 5832 5831 5831 5830 5829 5829 5827 5826 5825 5823 5821 5819 5816 5814 5811 5808 5805
5817 5818 5819 5820 5820 5822 5826 5825 5824 5826 5827 5827 5827 5827 5828 5828 5830 5830 5829 5830 5830 5830 5829 5829 5829 5828 5828 5827 5827 5826 5825 5824 5823 5822 5820 5818 5816 5814 5812 5809 5806 5803 5800 5797
5813 5814 5815 5815 5815 5818 5820 5820 5820 5822 5824 5823 5823 5823 5824 5825 5826 5826 5825 5825 5825 5825 5825 5824 5824 5823 5823 5822 5821 5820 5819 5818 5817 5815 5813 5811 5809 5807 5804 5801 5798 5795 5791 5788
5808 5809 5810 5810 5811 5815 5814 5815 5816 5817 5817 5817 5818 5819 5819 5820 5820 5821 5821 5821 5820 5820 5820 5819 5818 5818 5816 5816 5815 5814 5813 5812 5810 5808 5806 5804 5801 5799 5796 5792 5789 5786 5782 5778
5802 5804 5805 5806 5809 5808 5809 5809 5810 5811 5812 5812 5813 5814 5814 5815 5815 5815 5815 5815 5815 5815 5814 5813 5812 5811 5810 5809 5808 5807 5805 5804 5802 5800 5798 5795 5793 5790 5787 5783 5780 5776 5772 5768
5796 5797 5799 5800 5802 5802 5802 5803 5804 5805 5806 5806 5807 5808 5808 5809 5809 5809 5809 5809 5809 5808 5808 5807 5806 5805 5803 5801 5800 5799 5797 5795 5793 5791 5789 5786 5783 5780 5777 5773 5770 5766 5761 5757
5790 5791 5792 5793 5795 5795 5796 5796 5797 5798 5799 5800 5801 5801 5802 5802 5802 5803 5803 5802 5802 5801 5801 5800 5798 5797 5795 5793 5792 5790 5788 5786 5784 5782 5779 5776 5773 5770 5767 5763 5759 5755 5750 5745
5783 5784 5784 5786 5787 5788 5789 5790 5791 5791 5792 5793 5793 5794 5794 5794 5795 5795 5795 5795 5794 5793 5792 5791 5790 5789 5787 5785 5783 5781 5779 5777 5774 5772 5769 5766 5763 5760 5756 5752 5749 5743 5739 5734